Regional Weather Roundup
Issued by NWS

Home | Current Version | Previous Version | Graphics & Text | Print | Product List | Glossary On
Versions: 1 2 3 4 5 6 7 8 9 10 11 12 13 14 15 16 17 18 19 20 21 22 23 24 25 26 27 28 29 30 31 32 33 34 35 36
000
ASUS45 KBOU 210707
RWRCO

WEATHER ROUNDUP FOR COLORADO
NATIONAL WEATHER SERVICE DENVER/BOULDER CO
100 AM MDT TUE OCT 21 2014

NOTE: "FAIR" INDICATES FEW OR NO CLOUDS BELOW 12000 FEET WITH NO
SIGNIFICANT WEATHER AND/OR OBSTRUCTIONS TO VISIBILITY.

COZ001>005-013-030-031-210800-
...NORTHWEST COLORADO...

CITY           SKY/WX    TMP DP  RH WIND       PRES   REMARKS
CRAIG          CLEAR     36  31  82 CALM      30.12S
HAYDEN         CLEAR     45  34  65 SE10      30.12S
MEEKER         PTCLDY    44  35  70 E8        30.13S
MOUNT WERNER   NOT AVBL
STEAMBOAT SPGS CLEAR     39  33  80 CALM      30.15S
WALDEN         CLEAR     34  30  86 E6        30.20S WCI  29
$$

COZ006>008-011-210800-
...WEST CENTRAL VALLEYS...

CITY           SKY/WX    TMP DP  RH WIND       PRES   REMARKS
GRAND JUNCTION CLOUDY    59  39  47 SE8       30.04S
MONTROSE       CLOUDY    53  38  56 SE10      30.13S
EAGLE          CLEAR     45  37  76 CALM      30.18R
RIFLE          PTCLDY    46  37  71 CALM      30.10S
DELTA          CLOUDY    57  42  58 CALM      30.10R
NUCLA          PTCLDY    52  36  54 SE9       30.16S
$$

COZ017>023-064>068-210800-
...SOUTHWEST COLORADO...

CITY           SKY/WX    TMP DP  RH WIND       PRES   REMARKS
DURANGO        CLOUDY    49  44  83 E5        30.22R
CORTEZ         CLEAR     51  40  65 SE3       30.14S
PAGOSA SPRINGS CLOUDY    46  39  78 CALM      30.28R
TELLURIDE      MOCLDY    47  34  61 CALM      30.30S
WOLF CREEK PAS FLURRIES  34  32  93 S13G21    30.44S WCI  25
$$

COZ009-010-012-014-032>034-037-058>063-210800-
...CENTRAL COLORADO...

CITY           SKY/WX    TMP DP  RH WIND       PRES   REMARKS
ASPEN          CLEAR     40  32  73 SW6       30.20F
BUENA VISTA    PTCLDY    36  32  84 NW3       30.26S
COPPER MTN     PTCLDY    41  30  65 S10       30.42S
BERTHOUD PASS  FAIR      32  30  93 W12       30.45F WCI  23
COTTONWOOD PAS PTCLDY    46  32  57 CALM      30.33S
GUNNISON       PTCLDY    37  28  70 CALM      30.27S
KREMMLING      CLEAR     36  30  80 CALM        N/A
LEADVILLE      CLEAR     33  29  85 CALM      30.32S
MONARCH PASS   PTCLDY    36  28  75 SW18      30.53S
SALIDA         CLEAR     46  34  65 W6        30.31S
SUNLIGHT       PTCLDY    41  32  70 CALM      30.36S
WILKERSON PASS NOT AVBL
$$

COZ069>075-210800-
...SAN LUIS VALLEY/SANGRE DE CRISTO MOUNTAINS...

CITY           SKY/WX    TMP DP  RH WIND       PRES   REMARKS
ALAMOSA        CLEAR     39  33  79 SE3       30.24S
LA VETA PASS   CLEAR     39  32  75 SW7       30.34F
SAGUACHE       PTCLDY    41  34  75 NW9       30.27R
$$

COZ035-036-038>040-210800-
...NORTHERN COLORADO FRONT RANGE...

CITY           SKY/WX    TMP DP  RH WIND       PRES   REMARKS
DENVER INTL AP CLEAR     58  39  49 S21       30.05S
DMNS CITY PARK   N/A     58  37  45 S6G12     30.04F
AURORA         PTCLDY    56  39  52 S18       30.07F
FRONT RANGE AP NOT AVBL
ERIE MUNI ARPT CLEAR     46  39  76 SE3       30.03S
BOULDER MUN AP CLEAR     52  37  58 NW5       30.03S
CENTENNIAL     CLEAR     54  38  54 S12       30.09F
BROOMFIELD     CLEAR     54  36  50 SW5       30.06S
FORT COLLINS   CLEAR     46  37  71 N7        30.05R
LONGMONT       CLEAR     47  40  76 CALM      30.05S
$$

COZ041-046-047-076>085-087-088-210800-
...PIKES PEAK/PALMER DIVIDE AND SOUTHERN FOOTHILLS...

CITY           SKY/WX    TMP DP  RH WIND       PRES   REMARKS
COLO. SPRINGS  CLEAR     46  40  79 E7        30.16F
A. F. ACADEMY  CLEAR     40  35  84 N8        30.17F
ELLICOTT       CLEAR     49  43  80 SE10      30.14F
FALCON         CLEAR     45  40  83 CALM      30.19F
FORT CARSON    CLEAR     46  38  76 NW6       30.13F
LIMON          CLEAR     51  45  79 S12       30.13F
MONUMENT HILL  CLEAR     46  39  76 S12       30.16S
TRINIDAD       CLEAR     55  40  56 SW14      30.15S
$$

COZ042>045-048>051-090-091-210800-
...NORTHEAST COLORADO...

CITY           SKY/WX    TMP DP  RH WIND       PRES   REMARKS
GREELEY ARPT   CLEAR     45  32  61 CALM      30.03S
AKRON          CLEAR     55  42  61 S16       30.06F
BURLINGTON     CLEAR     52  41  66 S13       30.10F
WRAY           CLEAR     54  40  57 S6        30.08S
STERLING       CLEAR     54  45  71 S7        30.03S
HOLYOKE        CLEAR     46  37  71 S8        30.06F
FORT MORGAN    CLEAR     51  40  65 SE5       30.04F
$$

COZ086-089-092>099-210800-
...SOUTHEAST COLORADO...

CITY           SKY/WX    TMP DP  RH WIND       PRES   REMARKS
PUEBLO         CLEAR     50  42  74 N3        30.09S
LA JUNTA       CLEAR     52  46  80 E5        30.09F
LAMAR          CLEAR     50  46  86 CALM      30.08S
SPRINGFIELD      N/A     45  45 100 SW6       30.12S
$$


USA.gov is the U.S. government's official web portal to all federal, state and local government web resources and services.